Weather History for KVIS - April, 2014

Change the Weather History Date:

Friday, April 18, 2014

  Actual Average (KHJO) Record (KHJO)
Temperature  
Mean Temperature 66 °F 61 °F  
Max Temperature 80 °F 76 °F 90 °F (1999)
Min Temperature 53 °F 47 °F 35 °F (2013)
Degree Days  
Heating Degree Days 0    
Month to date heating degree days  
Since 1 July heating degree days  
Cooling Degree Days 2    
Month to date cooling degree days  
Year to date cooling degree days  
Growing Degree Days 16 (Base 50)    
Moisture  
Dew Point 49 °F    
Average Humidity 52    
Maximum Humidity 72    
Minimum Humidity 37    
Precipitation  
Precipitation 0.00 in 0.02 in 0.02 in (2000)
Month to date precipitation 0.46  
Year to date precipitation 5.86  
Snow  
Snow 0.00 in - - ()
Month to date snowfall  
Since 1 July snowfall  
Snow Depth -    
Sea Level Pressure  
Sea Level Pressure 29.83 in    
Wind  
Wind Speed 5 mph (WNW)    
Max Wind Speed 10 mph    
Max Gust Speed -    
Visibility 10 miles    
Events      
T = Trace of Precipitation, MM = Missing Value Source: NWS Daily Summary

Daily Weather History Graph

Daily Weather History Graph

Search for Another Location

Airport or City:

Trip Planner

Search our weather history database for the weather conditions in past years. The results will help you decide how hot, cold, wet, or windy it might be!

Date:

Astronomy

Apr. 18, 2014 Rise Set
Actual Time 6:20 AM PDT 7:34 PM PDT
Civil Twilight 5:53 AM PDT 8:01 PM PDT
Nautical Twilight 5:21 AM PDT 8:32 PM PDT
Astronomical Twilight 4:48 AM PDT 9:06 PM PDT
Moon 11:20 PM PDT (4/18) 8:50 AM PDT (4/18)
Length of Visible Light 14h 07m
Length of Day
13h 14m
Waning Gibbous, 86% of the Moon is Illuminated
Apr 18
Waning Gibbous
Apr 22
Last Quarter
Apr 28
New
May 6
First Quarter
May 14
Full

Hourly Weather History & Observations

Time (PDT) Temp. Dew Point Humidity Pressure Visibility Wind Dir Wind Speed Gust Speed Precip Events Conditions
12:15 AM 68.0 °F 48.2 °F 49% 29.79 in 10.0 mi NW 8.1 mph - N/A   Clear
12:35 AM 66.2 °F 48.2 °F 52% 29.79 in 10.0 mi NW 8.1 mph - N/A   Clear
12:55 AM 66.2 °F 48.2 °F 52% 29.77 in 10.0 mi NNW 4.6 mph - N/A   Clear
1:15 AM 64.4 °F 48.2 °F 56% 29.78 in 10.0 mi WNW 4.6 mph - N/A   Clear
1:35 AM 62.6 °F 48.2 °F 59% 29.78 in 10.0 mi WNW 4.6 mph - N/A   Clear
1:55 AM 62.6 °F 48.2 °F 59% 29.77 in 10.0 mi Calm Calm - N/A   Clear
2:15 AM 60.8 °F 48.2 °F 63% 29.77 in 10.0 mi West 5.8 mph - N/A   Clear
2:35 AM 60.8 °F 50.0 °F 68% 29.77 in 10.0 mi WNW 5.8 mph - N/A   Clear
2:55 AM 62.6 °F 50.0 °F 63% 29.77 in 10.0 mi WNW 6.9 mph - N/A   Clear
3:15 AM 60.8 °F 48.2 °F 63% 29.78 in 10.0 mi WNW 5.8 mph - N/A   Clear
3:35 AM 60.8 °F 48.2 °F 63% 29.78 in 10.0 mi NW 6.9 mph - N/A   Clear
3:55 AM 60.8 °F 48.2 °F 63% 29.78 in 10.0 mi NW 9.2 mph - N/A   Clear
4:15 AM 60.8 °F 48.2 °F 63% 29.78 in 10.0 mi NNW 4.6 mph - N/A   Clear
4:35 AM 60.8 °F 46.4 °F 59% 29.79 in 10.0 mi NNW 4.6 mph - N/A   Clear
4:55 AM 60.8 °F 46.4 °F 59% 29.80 in 10.0 mi NNW 6.9 mph - N/A   Clear
5:15 AM 59.0 °F 46.4 °F 63% 29.80 in 10.0 mi NW 4.6 mph - N/A   Clear
5:35 AM 57.2 °F 46.4 °F 67% 29.80 in 10.0 mi NW 5.8 mph - N/A   Clear
5:55 AM 57.2 °F 46.4 °F 67% 29.81 in 10.0 mi NW 4.6 mph - N/A   Clear
6:15 AM 57.2 °F 46.4 °F 67% 29.82 in 10.0 mi West 3.5 mph - N/A   Clear
6:35 AM 55.4 °F 46.4 °F 72% 29.83 in 10.0 mi Calm Calm - N/A   Clear
6:55 AM 53.6 °F 44.6 °F 72% 29.84 in 10.0 mi Calm Calm - N/A   Clear
7:15 AM 55.4 °F 46.4 °F 72% 29.85 in 10.0 mi SW 3.5 mph - N/A   Clear
7:35 AM 55.4 °F 46.4 °F 72% 29.86 in 8.0 mi West 3.5 mph - N/A   Clear
7:55 AM 60.8 °F 46.4 °F 59% 29.87 in 10.0 mi NW 9.2 mph - N/A   Clear
8:15 AM 62.6 °F 46.4 °F 55% 29.87 in 10.0 mi NW 9.2 mph - N/A   Clear
8:35 AM 62.6 °F 46.4 °F 55% 29.87 in 10.0 mi NW 6.9 mph - N/A   Clear
8:55 AM 62.6 °F 44.6 °F 52% 29.88 in 10.0 mi WNW 8.1 mph - N/A   Clear
9:15 AM 62.6 °F 46.4 °F 55% 29.88 in 10.0 mi WNW 5.8 mph - N/A   Clear
9:35 AM 64.4 °F 46.4 °F 52% 29.88 in 10.0 mi NW 4.6 mph - N/A   Clear
9:55 AM 66.2 °F 46.4 °F 49% 29.88 in 10.0 mi NNW 4.6 mph - N/A   Clear
10:15 AM 68.0 °F 48.2 °F 49% 29.89 in 10.0 mi NNW 4.6 mph - N/A   Clear
10:35 AM 68.0 °F 48.2 °F 49% 29.89 in 10.0 mi NW 4.6 mph - N/A   Clear
10:55 AM 69.8 °F 48.2 °F 46% - 10.0 mi North 3.5 mph - N/A   Clear
11:15 AM 69.8 °F 48.2 °F 46% 29.89 in 10.0 mi West 8.1 mph - N/A   Clear
11:35 AM 71.6 °F 50.0 °F 46% 29.89 in 10.0 mi West 3.5 mph - N/A   Clear
11:55 AM 69.8 °F 48.2 °F 46% 29.89 in 10.0 mi Calm Calm - N/A   Clear
12:15 PM 69.8 °F 50.0 °F 49% 29.88 in 10.0 mi Calm Calm - N/A   Clear
12:35 PM 71.6 °F 50.0 °F 46% 29.88 in 10.0 mi West 5.8 mph - N/A   Clear
12:55 PM 71.6 °F 50.0 °F 46% 29.88 in 10.0 mi West 4.6 mph - N/A   Clear
1:15 PM 73.4 °F 50.0 °F 44% 29.87 in 10.0 mi NNW 3.5 mph - N/A   Clear
1:35 PM 73.4 °F 51.8 °F 47% 29.87 in 10.0 mi West 5.8 mph - N/A   Clear
1:55 PM 75.2 °F 51.8 °F 44% 29.87 in 10.0 mi Calm Calm - N/A   Clear
2:15 PM 75.2 °F 51.8 °F 44% 29.85 in 10.0 mi WNW 4.6 mph - N/A   Clear
2:35 PM 77.0 °F 51.8 °F 41% 29.84 in 10.0 mi WNW 5.8 mph - N/A   Clear
2:55 PM 75.2 °F 50.0 °F 41% 29.83 in 10.0 mi NNW 6.9 mph - N/A   Clear
3:15 PM 78.8 °F 51.8 °F 39% 29.82 in 10.0 mi NNW 5.8 mph - N/A   Clear
3:35 PM 75.2 °F 50.0 °F 41% 29.81 in 10.0 mi West 6.9 mph - N/A   Clear
3:55 PM 78.8 °F 51.8 °F 39% 29.80 in 10.0 mi WNW 5.8 mph - N/A   Clear
4:15 PM 78.8 °F 51.8 °F 39% 29.80 in 10.0 mi WSW 4.6 mph - N/A   Clear
4:35 PM 78.8 °F 51.8 °F 39% 29.80 in 10.0 mi West 6.9 mph - N/A   Clear
4:55 PM 78.8 °F 51.8 °F 39% 29.80 in 10.0 mi West 5.8 mph - N/A   Clear
5:15 PM 80.6 °F 51.8 °F 37% 29.79 in 10.0 mi NNW 9.2 mph - N/A   Clear
5:35 PM 80.6 °F 51.8 °F 37% 29.79 in 10.0 mi WNW 9.2 mph - N/A   Clear
5:55 PM 80.6 °F 51.8 °F 37% 29.79 in 10.0 mi West 8.1 mph - N/A   Clear
6:15 PM 80.6 °F 51.8 °F 37% 29.78 in 10.0 mi WNW 6.9 mph - N/A   Clear
6:35 PM 78.8 °F 51.8 °F 39% 29.78 in 10.0 mi West 8.1 mph - N/A   Clear
6:55 PM 78.8 °F 51.8 °F 39% 29.79 in 10.0 mi WNW 5.8 mph - N/A   Clear
7:15 PM 75.2 °F 51.8 °F 44% 29.79 in 10.0 mi WNW 5.8 mph - N/A   Clear
7:35 PM 75.2 °F 51.8 °F 44% 29.79 in 10.0 mi West 4.6 mph - N/A   Clear
7:55 PM 73.4 °F 51.8 °F 47% 29.80 in 10.0 mi Calm Calm - N/A   Clear
8:15 PM 71.6 °F 51.8 °F 50% 29.80 in 10.0 mi Calm Calm - N/A   Clear
8:35 PM 71.6 °F 51.8 °F 50% 29.82 in 10.0 mi Calm Calm - N/A   Clear
8:55 PM 69.8 °F 51.8 °F 53% 29.82 in 10.0 mi Calm Calm - N/A   Clear
9:15 PM 69.8 °F 51.8 °F 53% 29.83 in 10.0 mi WNW 4.6 mph - N/A   Clear
9:35 PM 69.8 °F 50.0 °F 49% 29.85 in 10.0 mi WNW 3.5 mph - N/A   Clear
9:55 PM 69.8 °F 50.0 °F 49% 29.85 in 10.0 mi NW 4.6 mph - N/A   Partly Cloudy
10:15 PM 69.8 °F 50.0 °F 49% 29.86 in 10.0 mi NNW 4.6 mph - N/A   Partly Cloudy
10:35 PM 69.8 °F 50.0 °F 49% 29.87 in 10.0 mi NW 4.6 mph - N/A   Clear
10:55 PM 66.2 °F 50.0 °F 56% 29.87 in 10.0 mi NW 6.9 mph - N/A   Clear
11:15 PM 66.2 °F 50.0 °F 56% 29.87 in 10.0 mi NW 9.2 mph - N/A   Clear
11:35 PM 66.2 °F 50.0 °F 56% 29.88 in 10.0 mi NW 10.4 mph - N/A   Clear
11:55 PM 66.2 °F 50.0 °F 56% 29.88 in 10.0 mi NW 9.2 mph - N/A   Clear